カタログに戻る

FENGYUN 1C DEB

運用中PO
NORAD 38166·DEBRIS·🇨🇳 China

打ち上げ May 10, 1999 から Taiyuan Satellite Launch Center

Loading…

次のパス (今後24時間)

TLE

最新Source: Space-Track

元期: Sep 14, 2026, 14:04 UTC

1 38166U 99025ERP 26257.58664196  .00004172  00000-0  14711-2 0  9996
2 38166  99.0828  18.8501 0049241 320.0977  39.6591 14.34663718677234

AllMySatでFENGYUN 1C DEBをリアルタイム追跡

Download on the App Store